Marion, IN

7:51 PM EST on February 22, 2017 (GMT -0500)
Marion Municipal

Weather History for KMZZ - February, 2014

Change the Weather History Date:

Tuesday, February 18, 2014

  Actual Average (KMIE) Record (KMIE)
Temperature  
Mean Temperature 34 °F -  
Max Temperature 42 °F 37 °F 67 °F (2017)
Min Temperature 25 °F 23 °F -10 °F (1993)
Degree Days  
Heating Degree Days 32    
Moisture  
Dew Point 27 °F    
Average Humidity 70    
Maximum Humidity 85    
Minimum Humidity 53    
Precipitation  
Precipitation 0.00 in - - ()
Sea Level Pressure  
Sea Level Pressure 29.90 in    
Wind  
Wind Speed 22 mph (SW)    
Max Wind Speed 39 mph    
Max Gust Speed 48 mph    
Visibility 10 miles    
Events      
Averages and records for this station are not official NWS values.
T = Trace of Precipitation, MM = Missing Value Source: NWS Daily Summary

Daily Weather History Graph

Daily Weather History Graph

Search for Another Location

Airport or City:

Trip Planner

Search our weather history database for the weather conditions in past years. The results will help you decide how hot, cold, wet, or windy it might be!

Date:

Astronomy

Feb. 18, 2014 Rise Set
Actual Time 7:32 AM EST 6:21 PM EST
Civil Twilight 7:04 AM EST 6:49 PM EST
Nautical Twilight 6:32 AM EST 7:21 PM EST
Astronomical Twilight 6:01 AM EST 7:52 PM EST
Moon 10:15 PM EST (2/18) 9:03 AM EST (2/18)
Length of Visible Light 11h 44m
Length of Day
10h 49m
Waning Gibbous, 87% of the Moon is Illuminated
Feb 18
Waning Gibbous
Feb 22
Last Quarter
Mar 1
New
Mar 8
First Quarter
Mar 16
Full

Hourly Weather History & Observations

Time (EST) Temp. Windchill Dew Point Humidity Pressure Visibility Wind Dir Wind Speed Gust Speed Precip Events Conditions
12:15 AM 34.0 °F 18.7 °F 29.8 °F 85% 29.78 in 10.0 mi West 39.1 mph 44.9 mph N/A   Overcast
12:35 AM 34.0 °F 18.7 °F 28.8 °F 81% 29.79 in 7.0 mi West 39.1 mph 48.3 mph N/A   Overcast
12:55 AM 33.8 °F 18.8 °F 28.6 °F 81% 29.80 in 7.0 mi West 36.8 mph 48.3 mph N/A   Overcast
1:15 AM 33.8 °F 19.9 °F 28.4 °F 81% 29.81 in 10.0 mi West 31.1 mph 38.0 mph N/A   Overcast
1:35 AM 33.8 °F 20.3 °F 28.0 °F 79% 29.82 in 10.0 mi West 28.8 mph 41.4 mph N/A   Overcast
1:55 AM 33.8 °F 19.4 °F 28.0 °F 79% 29.83 in 10.0 mi West 33.4 mph 38.0 mph N/A   Overcast
2:15 AM 33.6 °F 18.8 °F 27.9 °F 79% 29.84 in 10.0 mi West 35.7 mph 42.6 mph N/A   Overcast
2:35 AM 33.4 °F 19.1 °F 27.5 °F 79% 29.86 in 10.0 mi West 32.2 mph 36.8 mph N/A   Overcast
2:55 AM 33.3 °F 20.1 °F 27.3 °F 79% 29.87 in 10.0 mi West 26.5 mph 35.7 mph N/A   Overcast
3:15 AM 33.1 °F 19.3 °F 27.1 °F 79% 29.88 in 10.0 mi WNW 28.8 mph 34.5 mph N/A   Overcast
3:35 AM 32.9 °F 20.1 °F 26.8 °F 78% 29.89 in 10.0 mi WNW 24.2 mph 29.9 mph N/A   Overcast
3:55 AM 32.2 °F 19.1 °F 26.6 °F 80% 29.91 in 10.0 mi WNW 24.2 mph 31.1 mph N/A   Overcast
4:15 AM 32.0 °F 19.5 °F 26.4 °F 80% 29.92 in 10.0 mi WNW 21.9 mph 28.8 mph N/A   Overcast
4:35 AM 32.0 °F 20.1 °F 26.6 °F 80% 29.93 in 10.0 mi West 19.6 mph 31.1 mph N/A   Overcast
4:55 AM 31.8 °F 19.9 °F 26.4 °F 80% 29.95 in 10.0 mi West 19.6 mph 29.9 mph N/A   Overcast
5:15 AM 31.6 °F 19.7 °F 26.2 °F 80% 29.96 in 10.0 mi West 19.6 mph 23.0 mph N/A   Overcast
5:35 AM 31.1 °F 18.3 °F 26.2 °F 82% 29.98 in 10.0 mi West 21.9 mph 26.5 mph N/A   Overcast
5:55 AM 31.1 °F 19.7 °F 25.9 °F 81% 29.99 in 10.0 mi West 17.3 mph 23.0 mph N/A   Overcast
6:15 AM 30.7 °F 20.0 °F 25.7 °F 82% 30.00 in 10.0 mi West 15.0 mph 25.3 mph N/A   Overcast
6:35 AM 30.4 °F 17.7 °F 25.5 °F 82% 30.00 in 10.0 mi WNW 20.7 mph 24.2 mph N/A   Overcast
6:55 AM 30.0 °F 19.1 °F 25.2 °F 82% 30.01 in 10.0 mi West 15.0 mph 18.4 mph N/A   Overcast
7:15 AM 29.8 °F 19.8 °F 25.0 °F 82% 30.01 in 10.0 mi West 12.7 mph - N/A   Overcast
7:35 AM 29.3 °F 21.5 °F 24.6 °F 83% 30.01 in 10.0 mi WSW 8.1 mph - N/A   Overcast
7:55 AM 28.0 °F 20.0 °F 23.5 °F 83% 30.02 in 10.0 mi SW 8.1 mph - N/A   Scattered Clouds
8:15 AM 26.6 °F 17.5 °F 22.3 °F 84% 30.04 in 10.0 mi SW 9.2 mph - N/A   Clear
8:35 AM 25.9 °F 17.4 °F 21.4 °F 83% 30.05 in 10.0 mi SW 8.1 mph - N/A   Clear
8:55 AM 26.4 °F 18.9 °F 21.6 °F 82% 30.05 in 10.0 mi WSW 6.9 mph - N/A   Clear
9:15 AM 26.6 °F 21.2 °F 21.2 °F 80% 30.05 in 7.0 mi SW 4.6 mph - N/A   Clear
9:35 AM 26.8 °F 22.8 °F 21.4 °F 80% 30.05 in 10.0 mi SSW 3.5 mph - N/A   Clear
9:55 AM 28.0 °F 20.8 °F 22.6 °F 80% 30.05 in 10.0 mi SSW 6.9 mph - N/A   Clear
10:15 AM 29.5 °F 24.5 °F 23.7 °F 79% 30.04 in 10.0 mi South 4.6 mph - N/A   Clear
10:35 AM 30.9 °F 23.5 °F 24.6 °F 77% 30.04 in 10.0 mi South 8.1 mph - N/A   Clear
10:55 AM 32.2 °F 25.0 °F 25.5 °F 76% 30.03 in 10.0 mi South 8.1 mph - N/A   Clear
11:15 AM 33.4 °F 26.6 °F 26.4 °F 75% 30.03 in 10.0 mi South 8.1 mph - N/A   Clear
11:35 AM 34.5 °F 27.9 °F 27.0 °F 74% 30.02 in 10.0 mi South 8.1 mph - N/A   Clear
11:55 AM 35.4 °F 28.4 °F 27.5 °F 73% 30.01 in 10.0 mi South 9.2 mph - N/A   Clear
12:15 PM 36.5 °F 28.7 °F 27.7 °F 70% 30.00 in 10.0 mi South 11.5 mph - N/A   Clear
12:35 PM 37.2 °F 29.6 °F 27.7 °F 68% 29.99 in 10.0 mi South 11.5 mph - N/A   Clear
12:55 PM 37.9 °F 29.6 °F 27.9 °F 67% 29.98 in 10.0 mi South 13.8 mph - N/A   Clear
1:15 PM 38.8 °F 30.4 °F 27.5 °F 64% 29.97 in 10.0 mi South 15.0 mph - N/A   Clear
1:35 PM 39.2 °F 31.2 °F 27.5 °F 63% 29.96 in 10.0 mi South 13.8 mph - N/A   Clear
1:55 PM 39.2 °F 30.8 °F 27.5 °F 63% 29.95 in 10.0 mi South 15.0 mph - N/A   Clear
2:15 PM 39.6 °F 31.3 °F 27.5 °F 62% 29.93 in 10.0 mi South 15.0 mph - N/A   Clear
2:35 PM 40.1 °F 32.4 °F 27.3 °F 60% 29.91 in 10.0 mi South 13.8 mph - N/A   Clear
2:55 PM 40.5 °F 33.2 °F 27.3 °F 59% 29.89 in 10.0 mi South 12.7 mph - N/A   Clear
3:15 PM 40.3 °F 33.0 °F 27.5 °F 60% 29.89 in 10.0 mi South 12.7 mph - N/A   Clear
3:35 PM 40.5 °F 32.8 °F 27.5 °F 60% 29.89 in 10.0 mi South 13.8 mph - N/A   Clear
3:55 PM 40.5 °F 32.8 °F 27.3 °F 59% 29.87 in 10.0 mi South 13.8 mph - N/A   Clear
4:15 PM 40.6 °F 33.4 °F 27.0 °F 58% 29.86 in 10.0 mi South 12.7 mph - N/A   Clear
4:35 PM 41.2 °F 33.7 °F 26.6 °F 56% 29.85 in 10.0 mi South 13.8 mph - N/A   Clear
4:55 PM 41.4 °F 34.3 °F 26.6 °F 56% 29.84 in 10.0 mi South 12.7 mph - N/A   Clear
5:15 PM 41.9 °F 34.3 °F 26.4 °F 54% 29.83 in 10.0 mi South 15.0 mph - N/A   Clear
5:35 PM 42.1 °F 34.5 °F 26.2 °F 53% 29.83 in 10.0 mi South 15.0 mph - N/A   Clear
5:55 PM 41.9 °F 34.0 °F 26.4 °F 54% 29.82 in 10.0 mi South 16.1 mph - N/A   Clear
6:15 PM 42.4 °F 34.4 °F 26.2 °F 53% 29.82 in 10.0 mi South 17.3 mph - N/A   Clear
6:35 PM 41.7 °F 34.1 °F 26.8 °F 55% 29.81 in 10.0 mi South 15.0 mph - N/A   Clear
6:55 PM 41.4 °F 34.0 °F 27.1 °F 57% 29.82 in 10.0 mi South 13.8 mph - N/A   Clear
7:15 PM 40.5 °F 33.2 °F 27.5 °F 60% 29.81 in 10.0 mi South 12.7 mph - N/A   Clear
7:35 PM 40.6 °F 32.3 °F 27.5 °F 59% 29.79 in 10.0 mi South 16.1 mph - N/A   Clear
7:55 PM 40.6 °F 33.0 °F 27.5 °F 59% 29.80 in 10.0 mi South 13.8 mph - N/A   Clear
8:15 PM 40.5 °F 33.2 °F 27.7 °F 60% 29.80 in 10.0 mi South 12.7 mph - N/A   Clear
8:35 PM 39.9 °F 32.5 °F 27.9 °F 62% 29.80 in 10.0 mi South 12.7 mph - N/A   Clear
8:55 PM 40.3 °F 33.0 °F 27.9 °F 61% 29.79 in 10.0 mi South 12.7 mph - N/A   Scattered Clouds
9:15 PM 39.7 °F 32.7 °F 28.2 °F 63% 29.79 in 10.0 mi South 11.5 mph - N/A   Scattered Clouds
9:35 PM 39.6 °F 31.7 °F 28.2 °F 64% 29.78 in 10.0 mi SSW 13.8 mph - N/A   Scattered Clouds
9:55 PM 39.4 °F 31.4 °F 28.2 °F 64% 29.78 in 10.0 mi SSW 13.8 mph - N/A   Clear
10:35 PM 39.4 °F 30.7 °F 28.2 °F 64% 29.76 in 10.0 mi SSW 16.1 mph 21.9 mph N/A   Clear
10:55 PM 39.4 °F 31.1 °F 28.2 °F 64% 29.75 in 10.0 mi SSW 15.0 mph - N/A   Clear
11:15 PM 39.4 °F 30.4 °F 28.2 °F 64% 29.74 in 10.0 mi SSW 17.3 mph - N/A   Clear
11:35 PM 39.4 °F 30.7 °F 28.2 °F 64% 29.73 in 10.0 mi SSW 16.1 mph - N/A   Clear
11:55 PM 39.6 °F 31.0 °F 28.4 °F 64% 29.72 in 10.0 mi SSW 16.1 mph - N/A   Clear